Home   Weather   Mali Klishchi   Past weeks
Flag for Ukraine

Past Weather in Mali Klishchi, Ukraine — Yesterday and Last 2 Weeks

Now
57 °F

Clear.


Feels Like: 57 °F
Forecast: 71 / 49 °F
Wind: No wind

Location: Hostomel

Current Time: Oct 15, 2019 at 9:32:47 pm

Latest Report: Oct 15, 2019 at 8:30 pm


Visibility: 6 mi

Pressure: 30.12 "Hg

Humidity: 72%

Dew Point: 48 °F

Location of Mali KlishchiLocation

Past Weather in Mali Klishchi — Graph

°F

Mali Klishchi Temperature Yesterday

Maximum temperature yesterday: 75 °F (at 3:00 pm)
Minimum temperature yesterday: 46 °F (at 6:30 am)
Average temperature yesterday: 60 °F

High & Low Weather Summary for the Past Weeks

 TemperatureHumidityPressure
High75 °F (Oct 3, 5:00 pm)100% (Sep 30, 9:30 pm)30.18 "Hg (Sep 30, 9:30 pm)
Low27 °F (Oct 8, 6:30 am)25% (Oct 14, 3:00 pm)29.47 "Hg (Sep 30, 8:00 pm)
Average52 °F67%29.93 "Hg
* Reported Sep 30 8:00 pm — Oct 15 8:30 pm, Mali Klishchi. Weather by CustomWeather, © 2019

Note: Actual official high and low records may vary slightly from our data, if they occured in-between our weather recording intervals... More about our weather records

Advertising

Mali Klishchi Weather History for the Previous 24 Hours

Scroll right to see more
 ConditionsComfort  
Time TempWeatherWind HumidityBarometerVisibility
8:30 pm
Tue, Oct 15
57 °FClear.No wind72%30.12 "Hg6 mi
8:00 pm59 °FClear.No wind68%30.12 "Hg6 mi
7:30 pm61 °FFog.3 mph63%30.12 "Hg6 mi
7:00 pm63 °FFog.3 mph59%30.09 "Hg6 mi
6:30 pm66 °FClear.3 mph52%30.09 "HgN/A
6:00 pm68 °FSunny.1 mph46%30.09 "HgN/A
5:30 pm72 °FSunny.1 mph38%30.09 "HgN/A
5:00 pm73 °FSunny.No wind38%30.09 "Hg10 mi
4:30 pm73 °FSunny.1 mph41%30.09 "Hg10 mi
4:00 pm73 °FSunny.1 mph38%30.12 "Hg10 mi
3:30 pm75 °FSunny.No wind36%30.12 "Hg10 mi
3:00 pm73 °FSunny.1 mph41%30.12 "Hg10 mi
2:30 pm73 °FSunny.1 mph41%30.12 "Hg10 mi
2:00 pm73 °FSunny.1 mph41%30.12 "Hg10 mi
1:30 pm72 °FSunny.1 mph44%30.12 "Hg10 mi
1:00 pm72 °FSunny.1 mph44%30.15 "Hg10 mi
12:30 pm68 °FSunny.1 mph49%30.15 "Hg10 mi
12:00 pm66 °FPassing clouds.3 mph49%30.15 "HgN/A
11:30 am64 °FSunny.1 mph52%30.15 "Hg10 mi
11:00 am63 °FPassing clouds.3 mph56%30.15 "HgN/A
10:30 am61 °FSunny.3 mph59%30.15 "Hg10 mi
10:00 am59 °FSunny.1 mph59%30.15 "Hg10 mi
9:30 am57 °FSunny.1 mph59%30.15 "Hg10 mi
9:00 am54 °FSunny.No wind67%30.12 "Hg10 mi
8:30 am48 °FSunny.1 mph87%30.12 "Hg10 mi
8:00 am48 °FSunny.3 mph82%30.12 "Hg10 mi
7:30 am48 °FSunny.1 mph82%30.09 "Hg10 mi
7:00 am46 °FClear.3 mph87%30.09 "HgN/A
6:30 am48 °FClear.1 mph76%30.09 "HgN/A
6:00 am50 °FClear.3 mph71%30.09 "Hg6 mi
5:30 am48 °FClear.3 mph76%30.09 "HgN/A
5:00 am48 °FClear.3 mph76%30.09 "HgN/A
4:30 am50 °FClear.6 mph71%30.09 "HgN/A
4:00 am50 °FClear.3 mph76%30.09 "HgN/A
3:30 am48 °FClear.6 mph82%30.09 "HgN/A
3:00 am48 °FClear.6 mph82%30.09 "HgN/A
2:30 am50 °FClear.3 mph71%30.09 "HgN/A
2:00 am52 °FClear.3 mph67%30.09 "HgN/A
1:30 am52 °FClear.3 mph62%30.09 "HgN/A
1:00 am52 °FClear.6 mph62%30.09 "HgN/A
12:30 am52 °FClear.6 mph62%30.09 "HgN/A
12:00 am52 °FClear.8 mph62%30.09 "HgN/A
11:30 pm
Mon, Oct 14
54 °FClear.6 mph54%30.09 "HgN/A
11:00 pm57 °FClear.6 mph51%30.09 "HgN/A
10:30 pm57 °FClear.3 mph48%30.09 "HgN/A
10:00 pm57 °FClear.6 mph48%30.09 "HgN/A
9:30 pm59 °FClear.6 mph45%30.09 "HgN/A
9:00 pm59 °FClear.6 mph45%30.09 "HgN/A
Weather by CustomWeather, © 2019

See weather overview